[[{"header":{"parameterUnit":"m.s-1","parameterCategory":1,"la1":30.2991,"la2":30.254,"lo1":-89.0895,"lo2":-89.0444,"dy":0.0017,"dx":0.0017,"nx":28,"ny":28,"refTime":"2024-10-20T03:00:00:Z","depth":0,"parameterNumber":2,"parameterNumberName":"U-component_of_WINDS"},"data":[0,0,0,0,0,0,0,0,0,0,0,0,0,0,0,0,0,0,0,0,0,0,0,0,0,0,0,0,0,0,0,0,0,0,0,0,0,0,0,0,0,0,0,0,0,0,0,0,0,0,0,0,0,0,0,0,0,0,-3.8236,-3.8237,0,-3.829,-3.8291,-3.8292,-3.8217,-3.8215,-3.8212,-3.8209,-3.8265,-3.8269,-3.8273,0,0,0,0,0,0,0,0,0,0,0,0,0,-3.807,-3.8073,-3.8236,-3.8237,-3.8238,-3.829,-3.8291,-3.8292,-3.8218,-3.8214,-3.8211,-3.8208,-3.8264,-3.8269,-3.8274,0,0,0,0,0,0,0,0,0,0,0,0,0,-3.8135,-3.8075,-3.8236,-3.8207,-3.8205,-3.829,-3.8291,-3.8292,-3.8218,-3.8214,-3.821,-3.8207,-3.8263,-3.8268,-3.8274,-3.8391,0,0,-3.8292,-3.8295,0,0,0,0,0,0,0,0,-3.8131,-3.8141,-3.8211,-3.8209,-3.8207,-3.8243,-3.8253,-3.8325,-3.8219,-3.8213,-3.8209,-3.8205,-3.8261,-3.8267,-3.8286,-3.8393,-3.8396,-3.8293,-3.8297,-3.8299,-3.8301,0,0,0,0,0,0,0,-3.8127,-3.8138,-3.8258,-3.8212,-3.821,-3.8192,-3.8196,-3.8266,-3.8259,-3.8214,-3.8208,-3.8216,-3.8259,-3.828,-3.8287,-3.8397,-3.8293,-3.8298,-3.8302,-3.8304,-3.8604,-3.8608,0,0,0,0,0,0,-3.8126,-3.8135,-3.8256,-3.8259,-3.8159,-3.8198,-3.8203,-3.8235,-3.8258,-3.8258,-3.8219,-3.8212,-3.8272,-3.828,-3.8288,-3.8428,-3.8299,-3.8305,-3.8308,-3.86,-3.8605,-3.861,0,0,0,0,0,0,-3.8123,-3.8137,-3.8254,-3.8196,-3.8209,-3.8205,-3.8242,-3.8239,-3.8259,-3.8262,-3.8261,-3.8242,-3.8269,-3.828,-3.8366,-3.8429,-3.8307,-3.8313,-3.8594,-3.8601,-3.8607,-3.8707,0,0,0,0,0,0,-3.8118,-3.8137,-3.8181,-3.8197,-3.8213,-3.8331,-3.8246,-3.8243,-3.827,-3.8261,-3.8283,-3.8283,-3.8267,-3.8358,-3.8372,-3.8435,-3.8317,-3.8589,-3.8598,-3.8605,-3.8698,-3.8716,-3.8731,0,0,0,0,0,-3.8112,-3.8206,-3.8183,-3.8198,-3.8268,-3.8334,-3.8343,-3.8323,-3.8275,-3.832,-3.8322,-3.8282,-3.8419,-3.8367,-3.8383,-3.8448,-3.8585,-3.8595,-3.8605,-3.8691,-3.8713,-3.8731,0,0,0,0,0,0,-3.8197,-3.8208,-3.8182,-3.8284,-3.8309,-3.8322,-3.8377,-3.8347,-3.8385,-3.8376,-3.8349,-3.8355,-3.8447,-3.8456,-3.8398,-3.8563,-3.8494,-3.8508,-3.8554,-3.8575,-3.8591,-3.8588,-3.8322,0,0,0,0,0,-3.8227,-3.828,-3.8287,-3.8376,-3.839,-3.8382,-3.841,-3.8392,-3.8417,-3.8427,-3.8435,-3.8461,-3.851,-3.8542,-3.8587,-3.8698,-3.8703,-3.8751,-3.8768,-3.8781,-3.8794,-3.8855,-3.8877,-3.8642,-3.8642,-3.8642,0,0,-3.8291,-3.8303,-3.8338,-3.8394,-3.8411,-3.8467,-3.8391,-3.8453,-3.8495,-3.8436,-3.8519,-3.8526,-3.8553,-3.8652,-3.8697,-3.8662,-3.886,-3.8794,-3.8805,-3.881,-3.8868,-3.889,-3.891,-3.8649,-3.8648,-3.8647,0,0,-3.8436,-3.845,-3.8527,-3.8545,-3.8572,-3.8566,-3.8585,-3.8602,-3.8605,-3.8687,-3.8645,-3.8694,-3.8778,-3.88,-3.8822,-3.8976,-3.8942,-3.8991,-3.9079,-3.9139,-3.9158,-3.9174,-3.9231,-3.9251,-3.9003,-3.9003,-3.9003,0,-3.8511,-3.8594,-3.857,-3.8636,-3.8662,-3.8612,-3.869,-3.8709,-3.875,-3.8769,-3.873,-3.8836,-3.885,-3.8955,-3.8993,-3.9011,-3.9033,-3.8989,-3.9157,-3.9173,-3.9188,-3.9242,-3.9263,-3.9009,-3.9009,-3.9008,-3.9007,0,-3.8687,-3.8745,-3.8804,-3.8845,-3.8877,-3.8949,-3.8936,-3.8972,-3.8952,-3.895,-3.9035,-3.9051,-3.9099,-3.9122,-3.9102,-3.9225,-3.9203,-3.9161,-3.9092,-3.9217,-3.9267,-3.9287,-3.9018,-3.9016,-3.9014,-3.9012,0,0,-3.8887,-3.8914,-3.8936,-3.8955,-3.8981,-3.9026,-3.9096,-3.9143,-3.9175,-3.9204,-3.9263,-3.9336,-3.9298,-3.9323,-3.9305,-3.9357,-3.9481,-3.9309,-3.9309,-3.9342,-3.9619,-3.9652,-3.9676,-3.9458,-3.9461,-3.9464,-3.9617,0,-3.9033,-3.9154,-3.9135,-3.9252,-3.9307,-3.926,-3.9321,-3.9344,-3.9344,-3.9391,-3.9391,-3.9444,-3.9388,-3.9403,-3.9453,-3.9455,-3.9536,-3.9444,-3.9514,-3.9517,-3.9511,-3.9702,-3.9737,-3.9881,-3.9637,-3.964,-3.9642,0,-3.922,-3.9258,-3.9381,-3.94,-3.9422,-3.9477,-3.9519,-3.9564,-3.9589,-3.9586,-3.9615,-3.9588,-3.9658,-3.9587,-3.9685,-3.9622,-3.9649,-3.9655,-3.966,-3.9668,-3.9588,-3.9717,-3.9926,-3.9948,-3.9673,-3.967,-3.9668,0,-3.9357,-3.9437,-3.9522,-3.9539,-3.9562,-3.9603,-3.9615,-3.9636,-3.9666,-3.9703,-3.9722,-3.9767,-3.9792,-3.9827,-3.9814,-3.9762,-3.9915,-3.9842,-3.9916,-3.9916,-3.9951,-3.995,-4.017,-3.9966,-3.9965,-3.9965,-3.9965,0,-3.9523,-3.9601,-3.9584,-3.9636,-3.9722,-3.9699,-3.9784,-3.979,-3.981,-3.9863,-3.9824,-3.9875,-3.9853,-3.9902,-3.9892,-3.9976,-3.9987,-3.9987,-3.9984,-3.9992,-3.9992,-4.0011,-4.0001,-3.9971,-3.9969,-3.9968,-3.9967,0,-3.9691,-3.9682,-3.9772,-3.9787,-3.9792,-3.9855,-3.9869,-3.9918,-3.9915,-3.9983,-3.9998,-3.9994,-4.005,-4.0039,-4.0101,-4.0094,-4.02,-4.0183,-4.0192,-4.0189,-4.0264,-4.0258,-4.0505,-4.0537,-4.0311,-4.0313,-4.0315,0,-3.9799,-3.9858,-3.988,-3.9912,-3.9928,-3.9981,-4.0011,-3.9991,-4.0024,-4.0058,-4.0104,-4.0157,-4.0198,-4.0291,-4.0294,-4.0342,-4.0327,-4.041,-4.0334,-4.0341,-4.0331,-4.0328,-4.0335,-4.0426,-4.0429,-4.0431,-4.0432,0,-3.9992,-3.9985,-4.0031,-4.0076,-4.0113,-4.0147,-4.0178,-4.0207,-4.0189,-4.0229,-4.0286,-4.0318,-4.0382,-4.0436,-4.048,-4.0492,-4.0461,-4.0456,-4.0476,-4.0486,-4.049,-4.0491,-4.0235,-4.0451,-4.0449,-4.0448,-4.0447,-4.0446,-4.0134,-4.0185,-4.0209,-4.0262,-4.0282,-4.0312,-4.036,-4.0363,-4.041,-4.0461,-4.0445,-4.0511,-4.0536,-4.0593,-4.061,-4.0662,-4.0631,-4.0659,-4.0667,-4.0675,-4.0685,-4.048,-4.067,-4.0669,-4.0669,-4.0668,-4.0668,0,-4.0327,-4.034,-4.0389,-4.0433,-4.0475,-4.044,-4.0472,-4.051,-4.0568,-4.0594,-4.0636,-4.0702,-4.0754,-4.0762,-4.0811,-4.0851,-4.0838,-4.0865,-4.0863,-4.0867,-4.0709,-4.0688,-4.0875,-4.0875,-4.0875,-4.0875,-4.0875,-4.0875,-4.0433,-4.0518,-4.0514,-4.0609,-4.0621,-4.0685,-4.0707,-4.0734,-4.0755,-4.0831,-4.0874,-4.0878,-4.0897,-4.0948,-4.0995,-4.0996,-4.1017,-4.105,-4.1046,-4.0898,-4.0878,-4.0858,-4.0838,-4.1054,-4.1055,-4.12,-4.1201,-4.1202]},{"header":{"parameterUnit":"m.s-1","parameterCategory":1,"la1":30.2991,"la2":30.254,"lo1":-89.0895,"lo2":-89.0444,"dy":0.0017,"dx":0.0017,"nx":28,"ny":28,"refTime":"2024-10-20T03:00:00:Z","depth":0,"parameterNumber":3,"parameterNumberName":"V-component_of_WINDS"},"data":[0,0,0,0,0,0,0,0,0,0,0,0,0,0,0,0,0,0,0,0,0,0,0,0,0,0,0,0,0,0,0,0,0,0,0,0,0,0,0,0,0,0,0,0,0,0,0,0,0,0,0,0,0,0,0,0,0,0,-2.3891,-2.3891,0,-2.3898,-2.3898,-2.3898,-2.386,-2.3858,-2.3857,-2.3856,-2.3863,-2.3864,-2.3865,0,0,0,0,0,0,0,0,0,0,0,0,0,-2.3846,-2.3847,-2.3891,-2.3891,-2.3892,-2.3898,-2.3898,-2.3898,-2.386,-2.3858,-2.3857,-2.3856,-2.3862,-2.3864,-2.3865,0,0,0,0,0,0,0,0,0,0,0,0,0,-2.386,-2.3847,-2.3891,-2.3873,-2.3872,-2.3898,-2.3898,-2.3898,-2.386,-2.3858,-2.3857,-2.3855,-2.3862,-2.3864,-2.3865,-2.3909,0,0,-2.3871,-2.3871,0,0,0,0,0,0,0,0,-2.3859,-2.3862,-2.3876,-2.3875,-2.3873,-2.3876,-2.3884,-2.3901,-2.386,-2.3864,-2.3856,-2.3854,-2.3868,-2.387,-2.3874,-2.3909,-2.3909,-2.3871,-2.3872,-2.3873,-2.3873,0,0,0,0,0,0,0,-2.3858,-2.3861,-2.3894,-2.3876,-2.3874,-2.3865,-2.3865,-2.3887,-2.3876,-2.3864,-2.3861,-2.3862,-2.3867,-2.3873,-2.3874,-2.3909,-2.3871,-2.3872,-2.3873,-2.3874,-2.3979,-2.3981,0,0,0,0,0,0,-2.386,-2.3861,-2.3894,-2.3894,-2.3862,-2.3867,-2.3867,-2.3877,-2.3875,-2.3873,-2.3864,-2.3861,-2.387,-2.3872,-2.3874,-2.3924,-2.3873,-2.3874,-2.3875,-2.3977,-2.3979,-2.3981,0,0,0,0,0,0,-2.3859,-2.3863,-2.3893,-2.3877,-2.388,-2.3869,-2.388,-2.3878,-2.3883,-2.3875,-2.3873,-2.3872,-2.3869,-2.3872,-2.39,-2.3924,-2.3875,-2.3877,-2.3975,-2.3978,-2.398,-2.4026,0,0,0,0,0,0,-2.3858,-2.3863,-2.388,-2.3877,-2.3881,-2.392,-2.3882,-2.3879,-2.3886,-2.3882,-2.3882,-2.388,-2.3868,-2.3898,-2.3902,-2.3926,-2.3878,-2.3973,-2.3977,-2.398,-2.4022,-2.403,-2.4036,0,0,0,0,0,-2.3856,-2.3893,-2.3881,-2.3885,-2.3902,-2.3921,-2.3923,-2.3909,-2.3888,-2.3905,-2.3899,-2.388,-2.3921,-2.3901,-2.3905,-2.393,-2.3972,-2.3976,-2.3979,-2.4019,-2.4028,-2.4036,0,0,0,0,0,0,-2.3899,-2.3892,-2.3879,-2.3916,-2.3919,-2.3915,-2.3935,-2.3919,-2.3929,-2.3925,-2.3906,-2.3906,-2.3938,-2.3937,-2.3915,-2.3972,-2.3943,-2.3948,-2.3971,-2.398,-2.3987,-2.3986,-2.388,0,0,0,0,0,-2.3912,-2.3929,-2.3922,-2.3955,-2.3957,-2.3946,-2.3954,-2.3943,-2.3946,-2.3947,-2.3944,-2.3948,-2.3961,-2.397,-2.3982,-2.4022,-2.4021,-2.4041,-2.4048,-2.4053,-2.4058,-2.4078,-2.4086,-2.3994,-2.3994,-2.3994,0,0,-2.394,-2.3939,-2.3951,-2.3963,-2.3965,-2.3982,-2.3948,-2.3968,-2.398,-2.395,-2.3977,-2.3974,-2.3977,-2.4011,-2.4026,-2.4011,-2.4083,-2.4058,-2.4063,-2.4064,-2.4083,-2.4091,-2.4099,-2.3997,-2.3996,-2.3996,0,0,-2.4001,-2.4001,-2.4028,-2.403,-2.4033,-2.4025,-2.4031,-2.4029,-2.4026,-2.4053,-2.403,-2.4045,-2.4068,-2.4071,-2.4076,-2.4135,-2.4118,-2.414,-2.4176,-2.4196,-2.4203,-2.421,-2.423,-2.4238,-2.4144,-2.4145,-2.4145,0,-2.4036,-2.4061,-2.4044,-2.4066,-2.4072,-2.4045,-2.4071,-2.4074,-2.4081,-2.4085,-2.4069,-2.4097,-2.4097,-2.4131,-2.4146,-2.415,-2.4157,-2.414,-2.4203,-2.421,-2.4215,-2.4235,-2.4243,-2.4147,-2.4147,-2.4147,-2.4146,0,-2.4103,-2.4121,-2.4143,-2.4149,-2.4157,-2.4181,-2.4168,-2.4178,-2.4166,-2.416,-2.4186,-2.4185,-2.4196,-2.4203,-2.4191,-2.4235,-2.4226,-2.4207,-2.4177,-2.4227,-2.4245,-2.4253,-2.4151,-2.415,-2.4149,-2.4149,0,0,-2.4191,-2.4187,-2.4196,-2.4198,-2.4198,-2.4211,-2.4233,-2.4244,-2.4253,-2.4258,-2.4276,-2.4296,-2.4278,-2.4283,-2.4271,-2.4289,-2.4335,-2.4267,-2.4267,-2.428,-2.4383,-2.4397,-2.4406,-2.4324,-2.4325,-2.4326,-2.4382,0,-2.425,-2.4288,-2.4273,-2.4312,-2.4328,-2.4302,-2.4321,-2.4323,-2.4318,-2.433,-2.4324,-2.4338,-2.4314,-2.4316,-2.4332,-2.4326,-2.4356,-2.4322,-2.434,-2.4341,-2.434,-2.4416,-2.4431,-2.4485,-2.439,-2.4391,-2.4392,0,-2.4324,-2.4331,-2.4372,-2.4368,-2.4374,-2.4392,-2.4399,-2.4412,-2.4413,-2.4408,-2.4413,-2.4397,-2.4418,-2.4389,-2.4417,-2.4395,-2.4401,-2.4399,-2.4401,-2.4402,-2.4369,-2.4419,-2.4501,-2.4509,-2.4403,-2.4402,-2.4401,0,-2.4383,-2.4403,-2.443,-2.4433,-2.4429,-2.4442,-2.4441,-2.4441,-2.4448,-2.4455,-2.4459,-2.4468,-2.4473,-2.4481,-2.4467,-2.4447,-2.4498,-2.4467,-2.4494,-2.4494,-2.4506,-2.4505,-2.459,-2.451,-2.451,-2.451,-2.451,0,-2.445,-2.4476,-2.4456,-2.4473,-2.4501,-2.4483,-2.4511,-2.4507,-2.4507,-2.4522,-2.45,-2.4515,-2.4496,-2.4509,-2.4499,-2.4524,-2.4526,-2.4522,-2.4519,-2.4524,-2.4525,-2.4528,-2.4524,-2.4512,-2.4511,-2.4511,-2.4511,0,-2.4522,-2.451,-2.4537,-2.4531,-2.453,-2.4551,-2.4545,-2.456,-2.4553,-2.4572,-2.4575,-2.4563,-2.4577,-2.4564,-2.4578,-2.457,-2.4604,-2.4596,-2.4603,-2.4601,-2.4628,-2.4626,-2.4718,-2.4729,-2.4642,-2.4643,-2.4644,0,-2.4565,-2.4584,-2.458,-2.4588,-2.4589,-2.4602,-2.4609,-2.4592,-2.46,-2.4602,-2.4616,-2.4628,-2.4636,-2.4659,-2.4652,-2.4662,-2.4653,-2.4685,-2.4655,-2.4659,-2.4653,-2.4652,-2.4654,-2.4691,-2.4692,-2.4693,-2.4694,0,-2.4644,-2.4636,-2.4647,-2.4655,-2.4663,-2.4669,-2.4673,-2.4681,-2.4663,-2.4673,-2.4686,-2.4693,-2.4706,-2.4717,-2.4724,-2.4723,-2.4706,-2.4703,-2.471,-2.4715,-2.4719,-2.4717,-2.462,-2.4701,-2.4701,-2.47,-2.47,-2.4699,-2.4702,-2.4717,-2.4717,-2.4728,-2.4729,-2.4733,-2.4747,-2.474,-2.4751,-2.476,-2.4749,-2.4765,-2.4765,-2.4773,-2.4774,-2.4786,-2.4773,-2.4783,-2.4785,-2.4788,-2.4791,-2.4717,-2.4788,-2.4787,-2.4787,-2.4787,-2.4787,0,-2.4779,-2.4777,-2.4788,-2.4794,-2.4803,-2.4785,-2.4788,-2.4797,-2.4811,-2.4813,-2.4821,-2.4836,-2.4847,-2.484,-2.4849,-2.4861,-2.4853,-2.4864,-2.4863,-2.4863,-2.4803,-2.4796,-2.487,-2.487,-2.487,-2.487,-2.487,-2.487,-2.482,-2.4845,-2.4837,-2.4862,-2.486,-2.4875,-2.4878,-2.4882,-2.4882,-2.49,-2.4909,-2.4904,-2.4902,-2.4911,-2.492,-2.4917,-2.4922,-2.4935,-2.493,-2.4875,-2.4867,-2.4859,-2.4853,-2.4937,-2.4937,-2.4989,-2.4989,-2.4989]}]]